[Date Prev][Date Next][Thread Prev][Thread Next] - [Date Index][Thread Index][Author Index]
2 Line ISS Keps 6-10
- Subject: [sarex] 2 Line ISS Keps 6-10
- From: "Dave Larsen PhD" <doc@xxxxxxxxxxx>
- Date: Thu, 10 Jun 2004 04:50:56 -0700
ISS
1 25544U 98067A 04162.32277778 .00014745 00000-0 13049-3 0 9638
2 25544 51.6331 0.7344 0005393 214.9275 149.2559 15.68872668317248
----
Via the sarex mailing list at AMSAT.ORG courtesy of AMSAT-NA.
To unsubscribe, send "unsubscribe sarex" to Majordomo@amsat.org
AMSAT Home